Wind_Speed
10 12 12 12 14 14 14 15 16 16 15 15 14 13 14 14 15 17 13 6 3 4 3 3 2 6 8 7 7 4 4 2 4 4 5 9 5 7 4 11 13 14 4 11 30
12 12 13 13 13 14 15 15 16 15 15 14 13 12 13 13 15 4 7 4 4 2 2 3 6 7 5 4 5 4 4 8 6 4 6 5 4 10 4 3 5 14 7 20 34
13 13 13 13 13 14 14 16 14 14 13 12 11 10 10 10 8 4 6 5 2 2 3 7 6 4 2 2 5 5 4 5 11 22 14 7 9 16 19 7 21 25 26 35 39
13 14 13 14 14 14 15 14 12 11 13 10 9 8 7 5 2 4 5 4 3 3 6 7 2 2 1 2 3 0 9 7 14 24 11 7 10 9 26 22 18 29 35 41 43
13 14 14 14 14 14 14 12 10 11 10 8 7 6 4 2 3 3 6 4 2 4 8 6 4 2 1 3 1 5 7 15 24 25 22 9 19 14 31 15 13 31 40 37 42
14 15 15 15 14 15 13 10 11 11 7 6 5 4 2 2 1 3 8 1 4 4 7 2 4 8 5 3 3 4 8 13 13 21 12 8 8 18 24 16 25 40 39 40 42
14 15 16 15 14 14 11 10 11 8 4 4 4 3 5 4 4 1 4 1 0 3 1 5 9 6 6 4 5 6 6 8 4 5 4 10 4 7 24 28 37 39 40 40 42
14 15 16 15 14 11 9 9 9 7 3 3 3 4 4 2 7 4 2 4 2 2 5 7 7 7 3 6 8 5 5 5 6 4 4 4 7 5 30 40 33 37 39 40 41
15 15 15 14 12 9 8 9 7 5 6 5 3 5 3 3 5 3 7 3 5 6 6 8 9 2 2 4 5 7 2 3 11 4 4 3 9 7 27 27 28 33 34 41 42
15 15 14 13 9 6 9 6 6 5 5 6 5 4 1 6 2 3 5 4 8 6 4 2 2 3 4 4 3 2 4 5 6 7 4 4 7 7 24 26 25 26 36 43 44
15 15 13 11 6 4 10 4 6 2 15 10 11 10 12 1 4 5 7 5 6 3 2 4 5 5 7 7 4 1 4 5 6 8 3 6 7 3 13 15 16 27 35 44 49
15 14 12 9 3 4 7 6 7 8 9 16 13 17 12 7 4 6 8 4 2 1 2 6 4 10 6 5 6 4 3 9 5 4 3 17 20 9 9 14 13 18 33 46 42
15 13 10 6 2 3 5 6 3 8 3 9 7 7 6 9 7 8 10 4 2 2 4 4 11 6 6 5 2 4 5 4 4 3 4 9 11 14 9 9 20 25 32 32 37
15 13 10 3 1 4 6 3 6 6 4 5 3 3 7 7 5 14 14 4 1 2 2 4 4 4 3 4 6 4 6 4 2 5 2 4 1 5 6 8 7 13 25 44 50
14 12 9 2 2 1 5 4 6 4 3 2 3 2 7 6 1 5 15 8 4 3 5 7 7 8 2 4 2 5 2 3 2 5 4 7 6 7 5 8 8 15 19 27 47
13 13 9 5 6 2 5 9 4 4 1 2 5 5 4 2 2 2 9 8 3 1 1 7 6 2 3 4 3 3 3 4 5 2 4 5 6 5 4 6 9 14 26 15 16
12 13 9 6 5 3 6 4 4 3 5 3 5 4 4 5 3 5 5 5 3 3 4 5 4 7 3 7 7 8 7 4 5 5 3 3 6 6 7 7 6 7 25 14 7
12 12 9 5 9 7 5 5 1 2 5 4 3 3 6 5 6 4 5 2 3 4 2 2 6 5 6 1 3 4 5 5 1 0 4 4 4 5 7 9 7 6 14 14 5
13 11 6 5 8 6 4 3 6 4 5 6 4 3 5 6 2 3 5 3 1 5 6 3 4 4 2 2 2 2 5 1 6 3 2 3 3 5 5 9 10 3 5 5 2
13 9 7 10 5 4 4 4 4 4 5 3 3 4 3 5 5 3 3 2 2 3 4 4 2 3 4 2 7 6 1 3 4 1 1 4 4 4 6 8 2 3 5 5 2
8 2 8 10 6 1 3 6 5 10 6 3 2 2 2 3 2 3 2 4 4 3 8 3 3 6 4 5 3 5 4 7 4 3 4 1 6 6 7 6 6 6 3 1 3
4 1 7 12 1 1 2 4 4 7 18 1 4 3 2 3 4 2 3 1 4 1 3 2 4 1 4 6 4 3 3 4 4 2 0 3 6 4 6 8 6 10 7 3 2
10 3 2 10 2 2 5 4 3 4 3 0 2 3 1 2 2 3 2 3 4 3 4 4 2 3 8 6 6 6 3 4 4 3 4 5 5 1 5 4 4 15 10 8 8
5 3 3 4 5 3 2 3 5 10 2 3 3 4 4 3 6 2 4 7 4 6 7 4 3 6 6 5 3 2 1 1 3 2 3 5 6 11 5 3 11 17 14 10 9
5 1 2 2 4 3 1 3 3 5 6 5 4 4 4 2 2 2 3 4 7 8 4 4 4 4 5 5 3 3 6 3 6 6 5 7 8 11 5 9 18 23 17 11 7
2 2 1 1 5 4 5 5 6 5 5 3 4 3 3 5 3 5 2 0 1 5 3 4 1 1 3 2 5 4 7 10 8 7 7 8 9 7 6 13 16 19 13 7 6
1 1 2 3 3 3 1 3 3 7 4 5 9 4 4 4 4 1 2 2 1 1 2 2 3 3 4 2 5 4 8 6 2 4 3 5 5 3 3 9 15 16 12 7 5
Wind_Direction
330 328 328 327 322 320 319 315 314 311 306 304 302 305 305 305 310 312 316 315 215 146 190 241 221 171 189 187 191 171 69 184 222 186 264 141 20 135 122 139 208 175 223 229 176
331 329 328 325 323 321 320 316 314 309 305 306 307 309 307 311 323 10 26 41 164 234 165 160 137 147 167 201 189 138 119 215 213 199 221 249 166 172 149 58 289 193 219 181 181
333 329 327 326 326 326 322 318 315 312 314 316 312 306 306 326 333 19 31 53 84 127 135 129 119 84 173 229 197 163 188 220 264 259 268 198 204 170 142 212 205 205 183 176 182
334 330 331 330 331 330 324 321 318 320 323 319 307 302 306 324 154 2 20 32 48 109 135 141 164 135 139 228 223 204 245 244 283 293 285 156 163 187 171 214 225 209 190 179 184
338 332 336 336 334 333 329 327 323 327 326 327 313 305 308 308 280 31 21 3 29 132 155 174 202 171 192 225 266 203 259 272 281 291 286 224 189 189 206 220 219 187 174 188 191
340 334 339 338 337 335 336 334 332 330 317 329 322 315 302 281 65 68 15 15 27 129 182 201 326 324 282 230 177 254 259 282 296 288 274 173 235 166 207 212 182 176 178 193 198
343 339 338 339 341 339 344 344 343 338 320 325 330 320 270 232 124 102 15 92 68 42 336 310 320 328 306 298 310 288 324 336 276 302 280 145 86 214 199 184 175 181 184 193 204
343 341 338 341 344 342 345 354 3 8 2 333 337 321 248 203 232 264 202 183 186 295 319 334 302 297 238 304 349 6 55 17 284 317 311 125 268 245 177 173 177 183 191 194 205
342 342 342 341 346 348 351 335 341 2 10 344 335 335 272 235 255 241 209 215 307 282 268 294 302 296 346 61 2 8 303 325 324 309 252 121 254 185 181 177 177 187 189 201 206
339 343 343 337 350 5 353 339 349 319 313 317 298 336 349 336 214 208 197 280 284 310 298 281 1 42 37 73 220 281 343 322 286 296 10 327 278 186 188 185 187 189 196 202 209
339 344 343 338 359 23 27 15 354 323 315 275 280 271 301 289 195 162 183 226 255 318 25 3 38 266 239 203 187 293 272 256 260 273 296 329 322 220 182 195 196 204 208 210 213
340 344 342 338 19 60 56 48 18 334 309 297 270 261 258 248 314 233 206 217 65 346 12 7 263 255 230 219 223 218 256 287 288 275 141 59 31 26 349 317 282 234 219 220 217
339 340 338 342 62 71 80 7 50 346 326 291 249 251 242 219 221 211 185 203 180 322 249 170 254 332 208 253 198 224 194 257 227 311 20 119 58 17 352 306 303 249 239 241 232
339 338 337 343 187 129 40 56 354 334 51 277 241 248 210 202 233 222 208 177 101 220 271 229 287 294 308 254 165 2 193 215 88 72 127 27 99 34 332 312 358 337 257 240 232
339 334 333 305 216 154 328 314 327 298 64 154 196 199 176 186 195 205 206 202 217 211 75 267 296 329 355 256 199 219 98 17 64 103 99 350 76 284 300 350 349 341 344 255 246
338 330 323 295 228 258 280 295 283 42 317 321 159 166 124 258 355 123 178 207 299 142 252 255 286 306 290 314 344 22 57 54 58 69 52 279 119 293 298 281 304 346 1 328 243
332 318 303 271 194 247 289 275 37 124 349 256 204 159 177 204 247 167 172 187 195 68 353 334 324 322 353 12 6 58 51 4 14 14 228 228 60 219 267 286 273 292 35 30 172
318 308 297 258 214 234 282 47 137 259 263 298 296 125 174 156 232 187 134 187 239 94 93 96 333 13 348 25 246 8 117 140 143 208 266 333 143 246 227 280 270 94 74 54 15
318 313 294 183 177 208 177 84 204 214 290 338 335 98 357 351 293 112 139 187 178 166 167 149 287 323 67 13 60 43 41 166 105 359 60 285 272 301 226 251 266 148 130 135 158
325 324 165 155 155 153 83 221 238 231 304 30 71 19 59 358 22 103 138 321 126 52 146 184 344 360 298 116 29 96 171 40 11 123 299 299 291 249 200 250 267 167 168 149 104
325 312 166 180 189 192 154 228 269 296 289 92 139 69 61 21 27 53 358 347 8 44 72 96 102 293 7 38 350 350 23 51 116 120 159 206 272 220 235 203 226 232 197 93 24
342 38 145 183 164 29 171 201 303 297 314 295 107 96 83 49 33 81 109 35 352 53 59 32 123 263 260 302 287 54 97 104 110 238 132 140 270 276 251 178 224 210 179 198 44
335 291 128 184 161 294 302 293 267 310 239 80 91 71 3 84 106 16 87 23 43 66 143 176 46 14 348 358 14 52 20 113 104 70 214 146 261 356 40 98 199 178 158 131 79
340 14 22 103 79 131 22 303 320 346 54 29 124 84 69 49 28 121 10 9 31 68 47 76 120 155 204 210 172 257 340 96 116 119 228 229 279 306 345 175 144 146 141 129 84
4 47 20 342 359 356 291 323 348 358 1 10 48 46 121 125 64 52 355 2 42 11 62 92 179 190 232 221 229 235 285 244 195 209 188 257 223 265 238 202 170 153 148 141 109
357 9 12 9 316 356 10 27 8 335 19 343 109 3 76 147 184 186 220 322 232 358 69 0 256 177 300 287 218 234 263 263 236 236 232 243 263 247 245 152 148 161 155 134 113
140 53 350 357 353 71 7 305 322 333 32 70 147 102 71 155 151 198 237 225 209 156 125 95 120 92 250 12 308 295 236 237 279 267 237 236 241 193 82 100 115 122 133 113 67
Height
1529 1527 1524 1522 1521 1518 1515 1514 1512 1510 1508 1507 1506 1505 1504 1504 1502 1500 1498 1499 1499 1500 1502 1503 1504 1504 1507 1508 1511 1511 1524 1534 1519 1517 1509 1508 1511 1508 1508 1508 1507 1510 1509 1513 1522
1527 1525 1524 1522 1519 1516 1514 1512 1510 1508 1506 1505 1504 1503 1503 1503 1500 1498 1498 1497 1498 1500 1501 1501 1502 1504 1506 1508 1509 1510 1525 1522 1508 1505 1505 1506 1507 1509 1511 1511 1510 1511 1511 1512 1520
1526 1525 1523 1520 1517 1514 1512 1510 1508 1506 1504 1502 1502 1502 1502 1501 1500 1499 1497 1496 1498 1499 1501 1502 1503 1504 1505 1507 1507 1508 1516 1507 1501 1499 1502 1506 1504 1504 1506 1508 1499 1506 1508 1511 1519
1526 1524 1521 1519 1515 1513 1510 1508 1506 1504 1503 1501 1501 1501 1501 1501 1504 1499 1498 1497 1497 1499 1501 1503 1503 1504 1505 1507 1505 1509 1503 1502 1498 1496 1497 1500 1501 1504 1498 1493 1491 1500 1507 1508 1515
1525 1522 1519 1517 1514 1511 1508 1506 1505 1503 1501 1501 1500 1500 1500 1501 1500 1499 1498 1498 1497 1498 1501 1503 1503 1503 1506 1505 1505 1506 1500 1498 1496 1494 1492 1496 1495 1496 1494 1496 1497 1503 1508 1512 1511
1523 1521 1518 1515 1513 1510 1507 1505 1503 1501 1501 1500 1500 1499 1499 1501 1499 1499 1498 1498 1498 1499 1501 1503 1503 1503 1502 1503 1504 1501 1498 1495 1492 1489 1488 1491 1490 1493 1495 1497 1500 1503 1505 1509 1508
1522 1519 1517 1514 1511 1508 1505 1504 1503 1501 1500 1500 1500 1499 1498 1499 1498 1498 1498 1498 1499 1500 1502 1503 1503 1503 1501 1499 1499 1498 1499 1493 1489 1487 1486 1486 1499 1494 1491 1496 1498 1501 1504 1506 1504
1521 1519 1516 1513 1510 1508 1506 1504 1503 1501 1501 1500 1499 1499 1496 1497 1497 1497 1498 1499 1499 1500 1501 1501 1501 1501 1500 1499 1497 1500 1503 1512 1490 1486 1483 1485 1501 1487 1488 1489 1494 1497 1502 1505 1501
1520 1517 1514 1511 1509 1507 1506 1504 1503 1502 1501 1500 1500 1500 1496 1496 1496 1496 1498 1499 1500 1500 1500 1500 1501 1500 1500 1505 1513 1512 1518 1510 1501 1484 1484 1485 1492 1482 1487 1489 1490 1494 1501 1502 1500
1520 1517 1513 1511 1509 1508 1506 1504 1503 1502 1502 1501 1500 1501 1497 1496 1495 1495 1498 1499 1499 1499 1500 1500 1500 1503 1507 1514 1529 1515 1513 1511 1511 1490 1484 1489 1488 1482 1484 1487 1489 1495 1496 1495 1493
1519 1515 1512 1510 1508 1508 1506 1504 1507 1505 1500 1499 1499 1499 1497 1495 1495 1496 1497 1499 1499 1499 1503 1501 1508 1515 1507 1506 1506 1506 1508 1512 1502 1492 1488 1492 1491 1491 1487 1490 1491 1492 1492 1489 1487
1517 1514 1511 1510 1509 1508 1508 1507 1508 1507 1500 1495 1495 1496 1495 1495 1497 1496 1497 1499 1498 1504 1503 1508 1512 1497 1497 1499 1503 1507 1512 1510 1497 1490 1489 1501 1507 1506 1504 1505 1503 1498 1490 1484 1486
1516 1513 1511 1508 1509 1509 1508 1506 1506 1506 1505 1495 1493 1492 1493 1495 1494 1494 1496 1497 1499 1504 1503 1510 1499 1493 1494 1495 1501 1501 1506 1502 1502 1492 1491 1501 1520 1513 1506 1504 1498 1496 1493 1493 1489
1515 1511 1509 1507 1511 1508 1507 1507 1508 1506 1516 1499 1492 1491 1491 1493 1493 1492 1493 1497 1498 1501 1500 1503 1493 1493 1491 1495 1493 1499 1491 1492 1494 1501 1520 1501 1536 1523 1514 1506 1497 1495 1491 1485 1480
1513 1510 1507 1508 1508 1508 1509 1507 1507 1507 1530 1493 1490 1489 1489 1493 1491 1489 1492 1495 1497 1498 1502 1506 1496 1494 1491 1489 1484 1492 1485 1491 1493 1507 1513 1515 1537 1527 1515 1508 1496 1487 1482 1477 1482
1510 1506 1506 1507 1507 1507 1507 1507 1508 1520 1522 1493 1488 1489 1491 1491 1490 1490 1492 1495 1496 1496 1499 1498 1491 1490 1488 1484 1484 1483 1488 1498 1507 1514 1534 1523 1531 1536 1524 1514 1501 1487 1479 1473 1480
1506 1507 1506 1506 1506 1506 1507 1507 1521 1525 1495 1495 1491 1488 1491 1494 1492 1491 1494 1499 1507 1512 1513 1503 1496 1490 1488 1491 1485 1490 1507 1537 1538 1545 1539 1519 1530 1529 1511 1506 1501 1492 1482 1479 1479
1507 1505 1504 1503 1504 1505 1507 1510 1523 1506 1502 1490 1487 1488 1494 1490 1491 1491 1497 1505 1500 1503 1517 1520 1523 1496 1492 1495 1498 1500 1507 1536 1540 1548 1539 1519 1535 1525 1508 1503 1500 1493 1487 1486 1484
1504 1502 1501 1501 1502 1504 1507 1525 1519 1508 1497 1494 1489 1492 1498 1491 1490 1490 1498 1505 1498 1498 1514 1519 1513 1496 1494 1493 1494 1500 1517 1509 1531 1536 1538 1535 1517 1508 1505 1502 1502 1496 1492 1488 1488
1502 1501 1501 1501 1503 1504 1508 1518 1508 1499 1495 1492 1502 1498 1504 1500 1497 1496 1501 1500 1498 1496 1497 1507 1519 1501 1496 1495 1497 1501 1506 1522 1533 1540 1540 1538 1530 1526 1512 1504 1501 1498 1496 1493 1491
1501 1500 1500 1501 1503 1504 1516 1513 1502 1496 1494 1494 1499 1500 1501 1502 1500 1503 1506 1501 1497 1498 1497 1504 1514 1512 1502 1509 1512 1511 1516 1527 1531 1537 1548 1551 1538 1505 1501 1502 1502 1502 1500 1500 1499
1500 1501 1500 1501 1505 1508 1510 1503 1499 1494 1494 1492 1493 1495 1499 1501 1503 1503 1504 1503 1499 1499 1506 1508 1520 1526 1515 1507 1507 1507 1517 1524 1539 1533 1541 1545 1537 1495 1495 1499 1499 1500 1501 1501 1501
1502 1500 1500 1501 1509 1510 1504 1501 1498 1495 1493 1493 1496 1496 1498 1501 1507 1503 1502 1501 1500 1501 1506 1508 1525 1540 1530 1519 1511 1518 1517 1521 1530 1536 1538 1542 1530 1494 1493 1495 1495 1498 1501 1503 1502
1504 1503 1500 1500 1504 1505 1506 1502 1500 1494 1494 1495 1496 1496 1499 1503 1506 1508 1507 1505 1503 1505 1505 1506 1523 1527 1541 1526 1523 1522 1519 1517 1524 1541 1533 1530 1516 1499 1498 1497 1498 1498 1500 1501 1502
1506 1507 1508 1509 1505 1506 1505 1504 1502 1502 1496 1496 1498 1500 1501 1508 1511 1514 1511 1508 1507 1507 1507 1511 1522 1521 1519 1519 1516 1516 1516 1515 1522 1522 1529 1517 1515 1501 1496 1494 1494 1495 1498 1500 1499
1507 1508 1507 1507 1506 1505 1507 1510 1508 1503 1503 1500 1503 1505 1503 1509 1510 1515 1512 1512 1511 1510 1511 1514 1522 1519 1519 1514 1516 1518 1515 1512 1512 1511 1513 1511 1509 1494 1490 1492 1494 1495 1497 1498 1499
1508 1508 1508 1510 1508 1508 1512 1509 1508 1505 1503 1501 1503 1505 1508 1510 1510 1511 1511 1511 1511 1512 1515 1517 1523 1530 1531 1520 1520 1527 1513 1507 1504 1501 1502 1507 1498 1494 1496 1495 1497 1498 1500 1501 1500